CZ-6A DEB, 61494

Orbit data source: Space-Track

CZ-6A DEB, 61494 is space debris in LEO originally from a launch on Tue, 06 Aug 2024 UTC launched from the Taiyaun Space Center, China (TSC). Debris objects in space refer to the collection of defunct objects orbiting the Earth. Examples of debris include non-operational satellites, rocket bodies, and fragments generated from explosions, collisions, or faulty payload assembly.

Loading next visibility...
Identifier
61494, 2024-140ABC
Orbit
LEO
Country
Flag of CNCN / PRC
Related business
Manufacturer
SAST
Mission
Spacecraft
Bus & Motor
Unknown
Mass
Unknown
Launch date (UTC)
2024-08-06 (1 year ago)
Launch vehicle
Unknown
Launch site
Taiyaun Space Center, China (TSC)
Object type
Payload
Rocket body
Debris
Shape & HBR
Unknown shape, 0.1 m
Radar Cross Section
Small (<0.1 m²)

Expand to show TLE details & history
Last TLE update: 2 days ago

TLE from 2 days ago
0 CZ-6A DEB
1 61494U 24140ABC 25349.83512433  .00002548  00000-0  13995-2 0  9995
2 61494  88.8557 288.5442 0107633 100.4677 260.8657 14.08534289 65048
Epoch: 2025-12-15T20:02Z
TLE epoch observation values (Epoch: 2025-12-15T20:02:34.742Z)
Latitude
0.00007°
Longitude
-96.82855°
Altitude
880.622 km
Speed
7.405 km/s
True Right ascension
19h 14m 10s
True Declination
0° 00' 00"
Sunlit
Object was in daylight at epoch
Visualization orbit readout
Latitude
Unknown
Longitude
Unknown
Altitude
Unknown
Speed
Unknown
Apparent Right ascension
Unknown
Apparent Declination
Unknown
Sunlit
N/A
Visualization observer readout
Local Sidereal Time
12:48:29
Azimuth
Unknown
Elevation
Unknown
Doppler factor
Unknown
Orbital elements
Apogee altitude
939.281 km
Perigee altitude
783.439 km
Semi-major axis
7,239.497 km
Eccentricity
0.01076
Inclination
88.8557°
RAAN
288.5442°
Arg. of periapsis
100.4677°
True anomaly
259.65064°
Mean anomaly
260.8657°
Eccentric anomaly
260.2579°
Mean motion
3.52355 °/min
Orbital period
102.17 mins
BSTAR
0.0013995
Loading maneuver chart data...
Computing Atmospheric mass density...
Loading historical data...
Loading historical data...
Loading historical data...
Loading historical data...
Loading historical data...
Loading historical data...
Loading historical data...

Documentation

Showing up to 5 results
|